Weather History for Miami, FL

Change the Weather History Date:

Tuesday, April 9, 2013

  Actual Average Record
Temperature  
Mean Temperature 77 °F 75 °F  
Max Temperature 83 °F 82 °F 93 °F (1982)
Min Temperature 71 °F 67 °F 42 °F (1939)
Degree Days  
Heating Degree Days 0 0  
Month to date heating degree days 0 0  
Since 1 July heating degree days 70 127  
Cooling Degree Days 12 10  
Month to date cooling degree days 87 86  
Year to date cooling degree days 699 655  
Growing Degree Days 26 (Base 50)    
Moisture  
Dew Point 64 °F    
Average Humidity 65    
Maximum Humidity 79    
Minimum Humidity 51    
Precipitation  
Precipitation 0.00 in 0.10 in 4.67 in (1990)
Month to date precipitation 2.15 0.93  
Year to date precipitation 5.35 7.80  
Snow  
Snow 0.00 in - - ()
Month to date snowfall 0.0  
Since 1 July snowfall 0.0  
Snow Depth 0.00 in    
Sea Level Pressure  
Sea Level Pressure 30.11 in    
Wind  
Wind Speed 11 mph (East)    
Max Wind Speed 18 mph    
Max Gust Speed 23 mph    
Visibility 10 miles    
Events      
T = Trace of Precipitation, MM = Missing Value Source: NWS Daily Summary

Daily Weather History Graph

Daily Weather History Graph

Search for Another Location

Airport:

Trip Planner

Search our weather history database for the weather conditions in past years. The results will help you decide how hot, cold, wet, or windy it might be!

Date:

Astronomy

Apr. 09, 2013 Rise Set
Actual Time 7:04 AM EDT 7:41 PM EDT
Civil Twilight 6:40 AM EDT 8:05 PM EDT
Nautical Twilight 6:13 AM EDT 8:32 PM EDT
Astronomical Twilight 5:45 AM EDT 9:00 PM EDT
Moon 6:23 AM EDT (4/9) 7:15 PM EDT (4/9)
Length of Visible Light 13h 24m
Length of Day
12h 37m
Waning Crescent, 1% of the Moon is Illuminated
Apr 9
Waning Crescent
Apr 10
New
Apr 18
First Quarter
Apr 25
Full
May 2
Last Quarter

Hourly Weather History & Observations

Time (EDT) Temp. Heat Index Dew Point Humidity Pressure Visibility Wind Dir Wind Speed Gust Speed Precip Events Conditions
12:53 AM 72.0 °F - 60.1 °F 66% 30.12 in 10.0 mi East 4.6 mph - N/A   Scattered Clouds
1:53 AM 71.1 °F - 61.0 °F 70% 30.11 in 10.0 mi East 4.6 mph - N/A   Clear
2:53 AM 71.1 °F - 62.1 °F 73% 30.08 in 10.0 mi East 4.6 mph - N/A   Scattered Clouds
3:53 AM 71.1 °F - 63.0 °F 75% 30.06 in 10.0 mi East 5.8 mph - N/A   Partly Cloudy
4:53 AM 72.0 °F - 64.9 °F 78% 30.07 in 10.0 mi East 4.6 mph - N/A   Scattered Clouds
5:53 AM 73.0 °F - 64.9 °F 76% 30.08 in 10.0 mi East 6.9 mph - N/A   Scattered Clouds
6:53 AM 72.0 °F - 64.9 °F 78% 30.10 in 10.0 mi East 6.9 mph - N/A   Mostly Cloudy
7:53 AM 73.9 °F - 64.9 °F 73% 30.11 in 10.0 mi ESE 9.2 mph - N/A   Mostly Cloudy
8:53 AM 75.9 °F - 66.0 °F 71% 30.12 in 10.0 mi ESE 11.5 mph - N/A   Mostly Cloudy
9:53 AM 78.1 °F - 66.0 °F 66% 30.14 in 10.0 mi ESE 16.1 mph - N/A   Mostly Cloudy
10:53 AM 80.1 °F 81.7 °F 64.0 °F 58% 30.15 in 10.0 mi East 15.0 mph - N/A   Mostly Cloudy
11:53 AM 82.0 °F 83.0 °F 62.1 °F 51% 30.16 in 10.0 mi East 15.0 mph - N/A   Mostly Cloudy
12:53 PM 82.0 °F 83.8 °F 64.9 °F 56% 30.14 in 10.0 mi ESE 13.8 mph - N/A   Mostly Cloudy
1:53 PM 82.9 °F 84.6 °F 64.9 °F 54% 30.13 in 10.0 mi East 12.7 mph - N/A   Mostly Cloudy
2:53 PM 82.9 °F 84.6 °F 64.9 °F 54% 30.11 in 10.0 mi East 15.0 mph - N/A   Mostly Cloudy
3:53 PM 81.0 °F 82.2 °F 63.0 °F 54% 30.09 in 10.0 mi East 17.3 mph - N/A   Mostly Cloudy
4:53 PM 81.0 °F 82.7 °F 64.9 °F 58% 30.09 in 10.0 mi East 13.8 mph - N/A   Mostly Cloudy
5:51 PM 78.8 °F - 64.4 °F 61% 30.09 in 10.0 mi East 15.0 mph - N/A   Mostly Cloudy
5:53 PM 79.0 °F - 66.0 °F 64% 30.09 in 10.0 mi East 13.8 mph - N/A   Mostly Cloudy
6:49 PM 77.0 °F - 64.4 °F 65% 30.09 in 10.0 mi ENE 13.8 mph - N/A   Mostly Cloudy
6:53 PM 77.0 °F - 64.9 °F 66% 30.10 in 10.0 mi ENE 12.7 mph - N/A   Mostly Cloudy
7:53 PM 75.9 °F - 64.9 °F 69% 30.10 in 10.0 mi ENE 12.7 mph - N/A   Mostly Cloudy
8:53 PM 75.9 °F - 64.0 °F 67% 30.12 in 10.0 mi ENE 9.2 mph - N/A   Mostly Cloudy
9:53 PM 75.9 °F - 64.0 °F 67% 30.12 in 10.0 mi ENE 11.5 mph - N/A   Mostly Cloudy
10:53 PM 75.0 °F - 66.0 °F 73% 30.11 in 10.0 mi East 11.5 mph - N/A   Mostly Cloudy
11:53 PM 75.0 °F - 64.9 °F 71% 30.11 in 10.0 mi East 11.5 mph 17.3 mph N/A   Mostly Cloudy